Time,TemperatureF,DewpointF,PressureIn,WindDirection,WindDirectionDegrees,WindSpeedMPH,WindSpeedGustMPH,Humidity,HourlyPrecipIn,Conditions,Clouds,dailyrainin,SoftwareType,DateUTC
2013-10-07 00:01:00,72.7,62.0,29.79,SE,135,6.5,7.0,69,0.00,SKC,,0.00,WeatherDisplay:10.37,2013-10-07 04:01:00,
2013-10-07 00:02:00,72.7,62.0,29.78,SSE,158,6.7,9.5,69,0.00,SKC,,0.00,WeatherDisplay:10.37,2013-10-07 04:02:00,
2013-10-07 00:03:00,72.7,62.0,29.78,SSE,158,5.8,9.2,69,0.00,SKC,,0.00,WeatherDisplay:10.37,2013-10-07 04:03:00,
2013-10-07 00:04:00,72.7,62.0,29.78,SSE,153,6.0,10.0,69,0.00,SKC,SKC,0.00,WeatherDisplay:10.37,2013-10-07 04:04:00,
2013-10-07 00:09:00,72.7,62.0,29.78,SSE,158,4.1,10.4,69,0.00,SKC,,0.00,WeatherDisplay:10.37,2013-10-07 04:09:00,
2013-10-07 00:11:00,72.7,62.0,29.78,SE,135,4.3,5.8,69,0.00,SKC,,0.00,WeatherDisplay:10.37,2013-10-07 04:11:00,
2013-10-07 00:16:00,72.5,61.8,29.78,SSE,158,3.3,7.0,69,0.00,SKC,,0.00,WeatherDisplay:10.37,2013-10-07 04:16:00,
2013-10-07 00:21:00,72.5,61.8,29.78,SSW,202,3.0,6.9,69,0.00,SKC,,0.00,WeatherDisplay:10.37,2013-10-07 04:21:00,
2013-10-07 00:26:00,72.3,62.0,29.77,SSE,158,3.3,5.8,70,0.00,SKC,,0.00,WeatherDisplay:10.37,2013-10-07 04:26:00,
2013-10-07 00:31:00,72.3,62.0,29.77,SSW,202,4.1,4.6,70,0.00,SKC,,0.00,WeatherDisplay:10.37,2013-10-07 04:31:00,
2013-10-07 00:36:00,71.9,61.6,29.77,SSE,158,3.0,4.6,70,0.00,SKC,,0.00,WeatherDisplay:10.37,2013-10-07 04:36:00,
2013-10-07 00:41:00,71.8,61.9,29.76,SE,135,3.7,6.1,71,0.00,SKC,,0.00,WeatherDisplay:10.37,2013-10-07 04:41:00,
2013-10-07 00:46:00,71.8,61.9,29.76,SSE,158,4.4,5.8,71,0.00,SKC,,0.00,WeatherDisplay:10.37,2013-10-07 04:46:00,
2013-10-07 00:51:00,71.4,61.5,29.76,ESE,112,3.4,5.8,71,0.00,SKC,,0.00,WeatherDisplay:10.37,2013-10-07 04:51:00,
2013-10-07 00:56:00,71.4,61.5,29.76,South,180,5.0,7.0,71,0.00,SKC,,0.00,WeatherDisplay:10.37,2013-10-07 04:56:00,
2013-10-07 01:01:00,71.2,61.3,29.76,ESE,112,3.3,5.8,71,0.00,SKC,,0.00,WeatherDisplay:10.37,2013-10-07 05:01:00,
2013-10-07 01:06:00,71.2,61.7,29.76,SSE,158,0.0,5.8,72,0.00,SKC,,0.00,WeatherDisplay:10.37,2013-10-07 05:06:00,
2013-10-07 01:11:00,71.0,61.5,29.76,SSE,158,1.1,2.7,72,0.00,SKC,,0.00,WeatherDisplay:10.37,2013-10-07 05:11:00,
2013-10-07 01:16:00,70.9,61.4,29.75,SSE,158,2.8,3.6,72,0.00,SKC,,0.00,WeatherDisplay:10.37,2013-10-07 05:16:00,
2013-10-07 01:21:00,70.9,61.4,29.75,SSE,158,2.3,3.5,72,0.00,SKC,,0.00,WeatherDisplay:10.37,2013-10-07 05:21:00,
2013-10-07 01:26:00,70.7,61.2,29.75,South,180,3.2,4.6,72,0.00,SKC,,0.00,WeatherDisplay:10.37,2013-10-07 05:26:00,
2013-10-07 01:31:00,70.7,61.2,29.75,SSW,202,1.5,3.6,72,0.00,SKC,,0.00,WeatherDisplay:10.37,2013-10-07 05:31:00,
2013-10-07 01:36:00,70.7,61.6,29.75,South,180,5.5,7.0,73,0.00,SKC,,0.00,WeatherDisplay:10.37,2013-10-07 05:36:00,
2013-10-07 01:41:00,71.0,61.5,29.75,SSE,158,3.1,5.8,72,0.00,SKC,,0.00,WeatherDisplay:10.37,2013-10-07 05:41:00,
2013-10-07 01:46:00,71.0,61.5,29.75,South,180,4.8,6.1,72,0.00,SKC,,0.00,WeatherDisplay:10.37,2013-10-07 05:46:00,
2013-10-07 01:51:00,71.0,61.5,29.74,South,180,2.6,3.5,72,0.00,SKC,,0.00,WeatherDisplay:10.37,2013-10-07 05:51:00,
2013-10-07 01:56:00,70.9,61.4,29.74,SSE,158,1.8,3.6,72,0.00,SKC,,0.00,WeatherDisplay:10.37,2013-10-07 05:56:00,
2013-10-07 02:01:00,70.7,61.2,29.74,SW,225,3.5,4.4,72,0.00,SKC,,0.00,WeatherDisplay:10.37,2013-10-07 06:01:00,
2013-10-07 02:06:00,70.9,61.4,29.74,SE,135,3.8,6.1,72,0.00,SKC,,0.00,WeatherDisplay:10.37,2013-10-07 06:06:00,
2013-10-07 02:11:00,70.9,61.4,29.74,SE,135,2.9,4.4,72,0.00,SKC,,0.00,WeatherDisplay:10.37,2013-10-07 06:11:00,
2013-10-07 02:16:00,70.9,61.4,29.74,SSE,158,4.9,6.1,72,0.00,SKC,,0.00,WeatherDisplay:10.37,2013-10-07 06:16:00,
2013-10-07 02:21:00,70.7,61.2,29.74,South,180,2.1,4.6,72,0.00,SKC,,0.00,WeatherDisplay:10.37,2013-10-07 06:21:00,
2013-10-07 02:26:00,70.7,61.2,29.73,SSW,202,3.1,5.8,72,0.00,SKC,,0.00,WeatherDisplay:10.37,2013-10-07 06:26:00,
2013-10-07 02:31:00,70.7,61.2,29.73,SSE,158,3.8,6.1,72,0.00,SKC,,0.00,WeatherDisplay:10.37,2013-10-07 06:31:00,
2013-10-07 02:37:00,70.7,61.2,29.73,South,180,1.6,5.8,72,0.00,SKC,,0.00,WeatherDisplay:10.37,2013-10-07 06:37:00,
2013-10-07 02:42:00,70.9,61.0,29.73,SSE,158,3.0,4.4,71,0.00,SKC,,0.00,WeatherDisplay:10.37,2013-10-07 06:42:00,
2013-10-07 02:47:00,70.9,61.0,29.73,WSW,248,3.6,6.9,71,0.00,SKC,,0.00,WeatherDisplay:10.37,2013-10-07 06:47:00,
2013-10-07 02:52:00,71.0,61.1,29.72,SSE,158,3.2,5.8,71,0.00,SKC,,0.00,WeatherDisplay:10.37,2013-10-07 06:52:00,
2013-10-07 02:57:00,71.0,61.1,29.72,South,180,3.8,4.6,71,0.00,SKC,,0.00,WeatherDisplay:10.37,2013-10-07 06:57:00,
2013-10-07 03:02:00,71.0,61.1,29.72,SSE,158,3.9,5.8,71,0.00,SKC,,0.00,WeatherDisplay:10.37,2013-10-07 07:02:00,
2013-10-07 03:07:00,71.6,60.9,29.72,South,180,8.5,11.2,69,0.00,SKC,,0.00,WeatherDisplay:10.37,2013-10-07 07:07:00,
2013-10-07 03:12:00,71.6,60.9,29.72,South,180,3.3,6.9,69,0.00,SKC,,0.00,WeatherDisplay:10.37,2013-10-07 07:12:00,
2013-10-07 03:17:00,71.4,60.7,29.71,SSW,202,4.0,5.8,69,0.00,SKC,,0.00,WeatherDisplay:10.37,2013-10-07 07:17:00,
2013-10-07 03:22:00,71.4,60.7,29.71,South,179,6.0,12.0,69,0.00,SKC,SKC,0.00,WeatherDisplay:10.37,2013-10-07 07:22:00,
2013-10-07 03:27:00,71.4,60.7,29.71,SSW,202,5.1,7.0,69,0.00,SKC,,0.00,WeatherDisplay:10.37,2013-10-07 07:27:00,
2013-10-07 03:32:00,71.6,60.9,29.71,SSE,158,3.8,5.8,69,0.00,SKC,,0.00,WeatherDisplay:10.37,2013-10-07 07:32:00,
2013-10-07 03:37:00,71.8,61.1,29.71,West,270,5.6,7.0,69,0.00,SKC,,0.00,WeatherDisplay:10.37,2013-10-07 07:37:00,
2013-10-07 03:42:00,71.9,60.8,29.71,SSE,158,6.1,10.4,68,0.00,SKC,,0.00,WeatherDisplay:10.37,2013-10-07 07:42:00,
2013-10-07 03:47:00,72.3,60.7,29.71,SE,135,5.2,10.4,67,0.00,SKC,,0.00,WeatherDisplay:10.37,2013-10-07 07:47:00,
2013-10-07 03:52:00,72.3,60.7,29.70,SW,225,5.5,7.0,67,0.00,SKC,,0.00,WeatherDisplay:10.37,2013-10-07 07:52:00,
2013-10-07 03:57:00,72.5,60.9,29.70,SSW,202,5.0,9.2,67,0.00,SKC,,0.00,WeatherDisplay:10.37,2013-10-07 07:57:00,
2013-10-07 04:02:00,72.3,60.7,29.70,South,180,4.5,6.9,67,0.00,SKC,,0.00,WeatherDisplay:10.37,2013-10-07 08:02:00,
2013-10-07 04:07:00,72.3,60.7,29.70,WSW,248,4.1,6.1,67,0.00,SKC,,0.00,WeatherDisplay:10.37,2013-10-07 08:07:00,
2013-10-07 04:12:00,72.5,60.9,29.70,SSW,202,4.2,7.0,67,0.00,SKC,,0.00,WeatherDisplay:10.37,2013-10-07 08:12:00,
2013-10-07 04:17:00,72.5,60.9,29.70,SSW,202,5.4,8.1,67,0.00,SKC,,0.00,WeatherDisplay:10.37,2013-10-07 08:17:00,
2013-10-07 04:22:00,72.5,60.9,29.70,SSW,202,3.4,6.9,67,0.00,SKC,,0.00,WeatherDisplay:10.37,2013-10-07 08:22:00,
2013-10-07 04:27:00,72.5,60.9,29.70,SSE,158,3.1,5.3,67,0.00,SKC,,0.00,WeatherDisplay:10.37,2013-10-07 08:27:00,
2013-10-07 04:32:00,72.5,60.9,29.70,SSE,158,4.1,6.1,67,0.00,SKC,,0.00,WeatherDisplay:10.37,2013-10-07 08:32:00,
2013-10-07 04:37:00,72.3,61.2,29.71,West,270,2.6,5.8,68,0.00,SKC,,0.00,WeatherDisplay:10.37,2013-10-07 08:37:00,
2013-10-07 04:42:00,71.6,61.7,29.71,West,270,9.8,12.9,71,0.00,SKC,,0.00,WeatherDisplay:10.37,2013-10-07 08:42:00,
2013-10-07 04:47:00,71.2,61.7,29.71,SW,225,8.7,9.2,72,0.00,SKC,,0.00,WeatherDisplay:10.37,2013-10-07 08:47:00,
2013-10-07 04:52:00,67.6,60.2,29.73,West,270,7.5,11.5,77,0.00,SKC,,0.00,WeatherDisplay:10.37,2013-10-07 08:52:00,
2013-10-07 04:57:00,66.4,59.0,29.73,North,360,7.0,9.2,77,0.00,SKC,,0.00,WeatherDisplay:10.37,2013-10-07 08:57:00,
2013-10-07 05:02:00,64.9,58.2,29.74,SW,225,5.1,12.7,79,0.00,SKC,,0.00,WeatherDisplay:10.37,2013-10-07 09:02:00,
2013-10-07 05:07:00,64.4,57.8,29.74,West,270,5.1,8.1,79,0.00,SKC,,0.00,WeatherDisplay:10.37,2013-10-07 09:07:00,
2013-10-07 05:12:00,63.8,57.2,29.74,SSW,202,6.8,11.5,79,0.00,SKC,,0.00,WeatherDisplay:10.37,2013-10-07 09:12:00,
2013-10-07 05:17:00,62.8,56.2,29.74,West,270,8.2,13.8,79,0.00,SKC,,0.00,WeatherDisplay:10.37,2013-10-07 09:17:00,
2013-10-07 05:22:00,62.2,55.6,29.74,SW,225,7.3,10.4,79,0.00,SKC,,0.00,WeatherDisplay:10.37,2013-10-07 09:22:00,
2013-10-07 05:27:00,61.5,54.6,29.76,South,180,5.4,6.9,78,0.00,SKC,,0.00,WeatherDisplay:10.37,2013-10-07 09:27:00,
2013-10-07 05:32:00,61.5,54.2,29.76,West,270,4.4,6.1,77,0.00,SKC,,0.00,WeatherDisplay:10.37,2013-10-07 09:32:00,
2013-10-07 05:37:00,61.3,54.0,29.78,South,180,3.4,5.8,77,0.00,SKC,,0.00,WeatherDisplay:10.37,2013-10-07 09:37:00,
2013-10-07 05:42:00,60.2,54.7,29.78,South,180,10.4,12.1,82,0.00,SKC,,0.00,WeatherDisplay:10.37,2013-10-07 09:42:00,
2013-10-07 05:47:00,58.1,54.6,29.78,SW,225,9.5,13.8,88,0.02,RA,,0.02,WeatherDisplay:10.37,2013-10-07 09:47:00,
2013-10-07 05:52:00,57.4,54.8,29.80,NW,315,2.7,5.8,91,0.03,RA,,0.03,WeatherDisplay:10.37,2013-10-07 09:52:00,
2013-10-07 05:57:00,57.2,54.9,29.80,SSE,158,3.7,5.8,92,0.04,RA,,0.04,WeatherDisplay:10.37,2013-10-07 09:57:00,
2013-10-07 06:02:00,56.8,54.8,29.82,SSE,158,4.3,6.1,93,0.05,RA,,0.05,WeatherDisplay:10.37,2013-10-07 10:02:00,
2013-10-07 06:07:00,56.6,54.9,29.82,WSW,248,0.0,3.5,94,0.08,RA,,0.08,WeatherDisplay:10.37,2013-10-07 10:07:00,
2013-10-07 06:12:00,56.6,54.9,29.82,WSW,248,2.4,3.6,94,0.10,RA,,0.10,WeatherDisplay:10.37,2013-10-07 10:12:00,
2013-10-07 06:17:00,56.3,54.9,29.82,SE,135,0.3,4.6,95,0.11,RA,,0.11,WeatherDisplay:10.37,2013-10-07 10:17:00,
2013-10-07 06:22:00,56.3,55.2,29.82,SE,135,1.4,3.5,96,0.12,RA,,0.12,WeatherDisplay:10.37,2013-10-07 10:22:00,
2013-10-07 06:27:00,56.1,55.0,29.81,NNE,22,2.6,3.6,96,0.13,RA,,0.14,WeatherDisplay:10.37,2013-10-07 10:27:00,
2013-10-07 06:32:00,55.7,54.6,29.81,SW,225,5.1,6.1,96,0.15,-RA,,0.15,WeatherDisplay:10.37,2013-10-07 10:32:00,
2013-10-07 06:37:00,55.6,54.5,29.81,South,180,1.9,3.5,96,0.16,-RA,,0.16,WeatherDisplay:10.37,2013-10-07 10:37:00,
2013-10-07 06:42:00,55.6,54.8,29.82,WNW,292,3.8,5.8,97,0.17,-RA,,0.17,WeatherDisplay:10.37,2013-10-07 10:42:00,
2013-10-07 06:47:00,55.6,54.8,29.82,WNW,292,0.0,2.3,97,0.15,-RA,,0.17,WeatherDisplay:10.37,2013-10-07 10:47:00,
2013-10-07 06:52:00,55.6,54.8,29.81,WNW,292,0.0,0.0,97,0.15,-RA,,0.18,WeatherDisplay:10.37,2013-10-07 10:52:00,
2013-10-07 06:57:00,55.6,55.1,29.81,WNW,292,0.0,0.0,98,0.14,-RA,,0.18,WeatherDisplay:10.37,2013-10-07 10:57:00,
2013-10-07 07:02:00,55.4,54.9,29.81,WNW,292,0.0,0.0,98,0.13,RA,,0.18,WeatherDisplay:10.37,2013-10-07 11:02:00,
2013-10-07 07:07:00,55.4,54.9,29.81,West,270,2.3,3.5,98,0.10,OVC,,0.18,WeatherDisplay:10.37,2013-10-07 11:07:00,
2013-10-07 07:12:00,55.4,55.1,29.81,West,270,4.4,7.8,99,0.09,RA,,0.19,WeatherDisplay:10.37,2013-10-07 11:12:00,
2013-10-07 07:17:00,55.2,54.9,29.83,WSW,248,0.0,2.3,99,0.08,RA,,0.19,WeatherDisplay:10.37,2013-10-07 11:17:00,
2013-10-07 07:22:00,55.2,54.9,29.83,WSW,248,1.0,2.3,99,0.08,RA,,0.20,WeatherDisplay:10.37,2013-10-07 11:22:00,
2013-10-07 07:27:00,55.2,54.9,29.83,ESE,112,2.3,4.6,99,0.09,RA,,0.22,WeatherDisplay:10.37,2013-10-07 11:27:00,
2013-10-07 07:32:00,55.2,54.9,29.83,ESE,112,1.5,2.7,99,0.08,RA,,0.23,WeatherDisplay:10.37,2013-10-07 11:32:00,
2013-10-07 07:37:00,55.0,54.7,29.83,West,270,4.1,5.8,99,0.08,RA,,0.24,WeatherDisplay:10.37,2013-10-07 11:37:00,
2013-10-07 07:42:00,55.0,54.7,29.83,ESE,112,0.0,3.5,99,0.09,RA,,0.26,WeatherDisplay:10.37,2013-10-07 11:42:00,
2013-10-07 07:47:00,55.0,54.7,29.83,SSE,158,0.4,3.5,99,0.10,RA,,0.27,WeatherDisplay:10.37,2013-10-07 11:47:00,
2013-10-07 07:52:00,55.0,54.7,29.82,WSW,248,3.1,4.6,99,0.10,RA,,0.28,WeatherDisplay:10.37,2013-10-07 11:52:00,
2013-10-07 07:57:00,54.8,54.5,29.82,WSW,248,1.3,4.6,99,0.11,RA,,0.29,WeatherDisplay:10.37,2013-10-07 11:57:00,
2013-10-07 08:02:00,54.8,54.5,29.84,South,180,2.6,3.6,99,0.12,-RA,,0.30,WeatherDisplay:10.37,2013-10-07 12:02:00,
2013-10-07 08:07:00,54.8,54.5,29.84,South,180,0.6,2.3,99,0.14,-RA,,0.32,WeatherDisplay:10.37,2013-10-07 12:07:00,
2013-10-07 08:12:00,54.8,54.8,29.84,West,270,0.0,4.6,100,0.14,-RA,,0.33,WeatherDisplay:10.37,2013-10-07 12:12:00,
2013-10-07 08:17:00,54.8,54.8,29.84,SSE,158,2.9,3.6,100,0.15,-RA,,0.34,WeatherDisplay:10.37,2013-10-07 12:17:00,
2013-10-07 08:22:00,54.8,54.8,29.84,South,180,0.2,2.3,100,0.14,-RA,,0.34,WeatherDisplay:10.37,2013-10-07 12:22:00,
2013-10-07 08:27:00,54.8,54.8,29.84,South,180,0.0,2.3,100,0.12,-RA,,0.34,WeatherDisplay:10.37,2013-10-07 12:27:00,
2013-10-07 08:32:00,54.8,54.8,29.84,West,270,1.2,3.5,100,0.12,-RA,,0.35,WeatherDisplay:10.37,2013-10-07 12:32:00,
2013-10-07 08:37:00,54.8,54.8,29.84,South,180,3.2,4.6,100,0.11,-RA,,0.35,WeatherDisplay:10.37,2013-10-07 12:37:00,
2013-10-07 08:42:00,54.7,54.7,29.84,South,180,1.9,2.7,100,0.09,-RA,,0.35,WeatherDisplay:10.37,2013-10-07 12:42:00,
2013-10-07 08:47:00,54.7,54.7,29.84,South,180,2.6,3.6,100,0.09,-RA,,0.36,WeatherDisplay:10.37,2013-10-07 12:47:00,
2013-10-07 08:52:00,54.7,54.7,29.84,West,270,2.7,2.7,100,0.08,-RA,,0.36,WeatherDisplay:10.37,2013-10-07 12:52:00,
2013-10-07 08:57:00,54.7,54.7,29.84,South,180,3.0,3.6,100,0.07,-RA,,0.36,WeatherDisplay:10.37,2013-10-07 12:57:00,
2013-10-07 09:02:00,54.8,54.8,29.85,SSW,202,3.8,5.8,100,0.06,-RA,,0.36,WeatherDisplay:10.37,2013-10-07 13:02:00,
2013-10-07 09:07:00,54.8,54.8,29.85,SSW,202,0.8,2.3,100,0.04,-RA,,0.36,WeatherDisplay:10.37,2013-10-07 13:07:00,
2013-10-07 09:12:00,54.8,54.8,29.85,SSW,202,0.0,0.0,100,0.03,-RA,,0.36,WeatherDisplay:10.37,2013-10-07 13:12:00,
2013-10-07 09:17:00,54.8,54.5,29.85,SSW,202,0.0,0.0,99,0.02,-RA,,0.36,WeatherDisplay:10.37,2013-10-07 13:17:00,
2013-10-07 09:22:00,55.0,54.7,29.85,SSE,158,2.8,4.6,99,0.02,-RA,,0.36,WeatherDisplay:10.37,2013-10-07 13:22:00,
2013-10-07 09:27:00,54.8,54.3,29.85,South,180,2.8,5.8,98,0.02,-RA,,0.36,WeatherDisplay:10.37,2013-10-07 13:27:00,
2013-10-07 09:32:00,54.8,54.3,29.85,SW,225,2.0,6.1,98,0.01,-RA,,0.36,WeatherDisplay:10.37,2013-10-07 13:32:00,
2013-10-07 09:37:00,54.8,54.3,29.85,SW,225,2.8,3.6,98,0.01,-RA,,0.36,WeatherDisplay:10.37,2013-10-07 13:37:00,
2013-10-07 09:42:00,54.8,54.3,29.85,West,270,3.1,4.6,98,0.01,-RA,,0.36,WeatherDisplay:10.37,2013-10-07 13:42:00,
2013-10-07 09:47:00,54.8,54.5,29.85,SSE,158,2.3,2.7,99,0.00,-RA,,0.36,WeatherDisplay:10.37,2013-10-07 13:47:00,
2013-10-07 09:52:00,54.8,54.5,29.86,WSW,248,4.2,5.8,99,0.01,-RA,,0.37,WeatherDisplay:10.37,2013-10-07 13:52:00,
2013-10-07 09:57:00,54.8,54.5,29.86,WSW,248,4.6,6.1,99,0.02,-RA,,0.38,WeatherDisplay:10.37,2013-10-07 13:57:00,
2013-10-07 10:02:00,54.5,54.2,29.86,South,180,4.8,6.9,99,0.02,RA,,0.38,WeatherDisplay:10.37,2013-10-07 14:02:00,
2013-10-07 10:07:00,54.7,54.4,29.86,South,180,0.0,4.6,99,0.04,RA,,0.40,WeatherDisplay:10.37,2013-10-07 14:07:00,
2013-10-07 10:12:00,54.5,54.2,29.86,SW,225,3.6,5.8,99,0.05,RA,,0.41,WeatherDisplay:10.37,2013-10-07 14:12:00,
2013-10-07 10:17:00,54.5,54.2,29.87,South,180,1.7,5.8,99,0.05,RA,,0.41,WeatherDisplay:10.37,2013-10-07 14:17:00,
2013-10-07 10:22:00,54.7,54.4,29.87,SSW,202,2.4,4.6,99,0.05,RA,,0.41,WeatherDisplay:10.37,2013-10-07 14:22:00,
2013-10-07 10:27:00,54.7,54.4,29.86,SSE,158,3.3,4.6,99,0.05,OVC,,0.41,WeatherDisplay:10.37,2013-10-07 14:27:00,
2013-10-07 10:32:00,54.7,54.4,29.86,SW,225,3.2,6.1,99,0.05,OVC,,0.41,WeatherDisplay:10.37,2013-10-07 14:32:00,
2013-10-07 10:37:00,54.7,54.4,29.86,SW,225,4.5,5.8,99,0.05,OVC,,0.41,WeatherDisplay:10.37,2013-10-07 14:37:00,
2013-10-07 10:42:00,54.3,54.0,29.87,WNW,292,3.4,8.1,99,0.05,OVC,,0.41,WeatherDisplay:10.37,2013-10-07 14:42:00,
2013-10-07 10:47:00,54.3,54.0,29.87,East,90,5.3,6.1,99,0.06,RA,,0.42,WeatherDisplay:10.37,2013-10-07 14:47:00,
2013-10-07 10:52:00,54.1,53.8,29.87,NNW,338,3.3,8.1,99,0.05,RA,,0.42,WeatherDisplay:10.37,2013-10-07 14:52:00,
2013-10-07 10:57:00,52.9,51.5,29.87,SW,225,7.3,11.5,95,0.04,RA,,0.42,WeatherDisplay:10.37,2013-10-07 14:57:00,
2013-10-07 11:02:00,52.3,50.4,29.87,WSW,248,5.3,10.4,93,0.04,-DZ,,0.42,WeatherDisplay:10.37,2013-10-07 15:02:00,
2013-10-07 11:07:00,52.1,50.2,29.87,West,270,14.0,17.3,93,0.02,-DZ,,0.42,WeatherDisplay:10.37,2013-10-07 15:07:00,
2013-10-07 11:12:00,52.3,50.1,29.87,NNW,338,4.7,8.1,92,0.01,-DZ,,0.42,WeatherDisplay:10.37,2013-10-07 15:12:00,
2013-10-07 11:17:00,52.9,50.7,29.87,SW,225,3.4,5.8,92,0.01,-DZ,,0.42,WeatherDisplay:10.37,2013-10-07 15:17:00,
2013-10-07 11:22:00,52.9,50.1,29.87,WNW,292,4.5,6.9,90,0.01,-DZ,,0.42,WeatherDisplay:10.37,2013-10-07 15:22:00,
2013-10-07 11:27:00,53.0,49.6,29.88,West,270,7.9,11.5,88,0.01,-DZ,,0.42,WeatherDisplay:10.37,2013-10-07 15:27:00,
2013-10-07 11:32:00,53.2,50.1,29.88,SW,225,5.4,8.1,89,0.01,-DZ,,0.42,WeatherDisplay:10.37,2013-10-07 15:32:00,
2013-10-07 11:37:00,53.6,49.8,29.88,WSW,248,7.3,12.7,87,0.01,-DZ,,0.42,WeatherDisplay:10.37,2013-10-07 15:37:00,
2013-10-07 11:42:00,53.6,50.2,29.88,West,270,5.1,9.2,88,0.01,-DZ,,0.42,WeatherDisplay:10.37,2013-10-07 15:42:00,
2013-10-07 11:47:00,53.8,50.7,29.88,SW,225,3.1,9.2,89,0.00,-DZ,,0.42,WeatherDisplay:10.37,2013-10-07 15:47:00,
2013-10-07 11:52:00,53.8,50.3,29.88,SW,225,2.4,8.7,88,0.00,-DZ,,0.42,WeatherDisplay:10.37,2013-10-07 15:52:00,
2013-10-07 11:57:00,53.6,49.5,29.88,NNE,22,5.1,11.5,86,0.00,-DZ,,0.42,WeatherDisplay:10.37,2013-10-07 15:57:00,
2013-10-07 12:02:00,53.8,49.1,29.89,SW,225,3.8,6.9,84,0.00,OVC,,0.42,WeatherDisplay:10.37,2013-10-07 16:02:00,
2013-10-07 12:07:00,53.8,48.5,29.89,West,270,6.8,16.1,82,0.00,OVC,,0.42,WeatherDisplay:10.37,2013-10-07 16:07:00,
2013-10-07 12:12:00,53.6,47.6,29.89,SW,225,6.5,13.8,80,0.00,OVC,,0.42,WeatherDisplay:10.37,2013-10-07 16:12:00,
2013-10-07 12:17:00,53.9,48.2,29.89,WSW,248,11.8,15.4,81,0.00,OVC,,0.42,WeatherDisplay:10.37,2013-10-07 16:17:00,
2013-10-07 12:22:00,54.5,48.5,29.89,SSW,202,6.4,12.7,80,0.00,OVC,,0.42,WeatherDisplay:10.37,2013-10-07 16:22:00,
2013-10-07 12:27:00,54.8,48.8,29.89,SSE,158,4.2,9.2,80,0.00,OVC,,0.42,WeatherDisplay:10.37,2013-10-07 16:27:00,
2013-10-07 12:32:00,55.0,48.6,29.89,SSW,202,8.4,14.6,79,0.00,OVC,,0.42,WeatherDisplay:10.37,2013-10-07 16:32:00,
2013-10-07 12:37:00,55.2,48.5,29.89,SSE,158,3.5,11.5,78,0.00,OVC,,0.42,WeatherDisplay:10.37,2013-10-07 16:37:00,
2013-10-07 12:42:00,55.6,48.9,29.89,SW,225,4.7,6.1,78,0.00,OVC,,0.42,WeatherDisplay:10.37,2013-10-07 16:42:00,
2013-10-07 12:47:00,55.7,49.0,29.89,WNW,292,4.4,9.5,78,0.00,OVC,,0.42,WeatherDisplay:10.37,2013-10-07 16:47:00,
2013-10-07 12:52:00,56.3,49.2,29.89,NW,315,6.9,9.2,77,0.00,OVC,,0.42,WeatherDisplay:10.37,2013-10-07 16:52:00,
2013-10-07 12:57:00,56.6,49.5,29.89,South,180,7.1,11.5,77,0.00,OVC,,0.42,WeatherDisplay:10.37,2013-10-07 16:57:00,
2013-10-07 13:02:00,57.0,48.4,29.89,WSW,248,9.0,13.8,73,0.00,BKN,,0.42,WeatherDisplay:10.37,2013-10-07 17:02:00,
2013-10-07 13:07:00,57.4,49.6,29.89,West,270,4.7,6.9,75,0.00,BKN,,0.42,WeatherDisplay:10.37,2013-10-07 17:07:00,
2013-10-07 13:12:00,57.9,48.6,29.89,WSW,248,7.2,11.5,71,0.00,BKN,,0.42,WeatherDisplay:10.37,2013-10-07 17:12:00,
2013-10-07 13:17:00,57.9,47.8,29.89,WSW,248,11.7,13.8,69,0.00,BKN,,0.42,WeatherDisplay:10.37,2013-10-07 17:17:00,
2013-10-07 13:22:00,58.1,48.0,29.89,West,270,4.4,11.5,69,0.00,BKN,,0.42,WeatherDisplay:10.37,2013-10-07 17:22:00,
2013-10-07 13:27:00,58.1,47.2,29.89,West,270,7.8,12.9,67,0.00,BKN,,0.42,WeatherDisplay:10.37,2013-10-07 17:27:00,
2013-10-07 13:32:00,58.8,47.1,29.89,WNW,292,9.8,11.5,65,0.00,BKN,,0.42,WeatherDisplay:10.37,2013-10-07 17:32:00,
2013-10-07 13:37:00,59.0,47.3,29.88,SW,225,4.9,12.7,65,0.00,BKN,,0.42,WeatherDisplay:10.37,2013-10-07 17:37:00,
2013-10-07 13:42:00,59.5,47.7,29.88,WSW,248,3.6,9.2,65,0.00,BKN,,0.42,WeatherDisplay:10.37,2013-10-07 17:42:00,
2013-10-07 13:47:00,59.0,46.0,29.88,SW,225,10.3,15.4,62,0.00,BKN,,0.42,WeatherDisplay:10.37,2013-10-07 17:47:00,
2013-10-07 13:52:00,59.0,46.0,29.88,WSW,248,8.2,12.1,62,0.00,BKN,,0.42,WeatherDisplay:10.37,2013-10-07 17:52:00,
2013-10-07 13:57:00,58.8,45.4,29.88,WSW,248,13.9,23.1,61,0.00,BKN,,0.42,WeatherDisplay:10.37,2013-10-07 17:57:00,
2013-10-07 14:02:00,58.4,45.4,29.88,West,270,6.4,19.6,62,0.01,RA,,0.43,WeatherDisplay:10.37,2013-10-07 18:02:00,
2013-10-07 14:07:00,59.3,46.3,29.88,WSW,248,9.0,15.0,62,0.01,RA,,0.43,WeatherDisplay:10.37,2013-10-07 18:07:00,
2013-10-07 14:12:00,59.3,46.3,29.88,West,270,5.1,11.5,62,0.01,RA,,0.43,WeatherDisplay:10.37,2013-10-07 18:12:00,
2013-10-07 14:17:00,59.9,46.4,29.88,SSE,158,9.9,11.5,61,0.01,BKN,,0.43,WeatherDisplay:10.37,2013-10-07 18:17:00,
2013-10-07 14:22:00,59.7,45.8,29.88,West,270,10.8,17.3,60,0.01,BKN,,0.43,WeatherDisplay:10.37,2013-10-07 18:22:00,
2013-10-07 14:27:00,59.2,46.2,29.89,SE,135,7.2,9.2,62,0.01,BKN,,0.43,WeatherDisplay:10.37,2013-10-07 18:27:00,
2013-10-07 14:32:00,59.2,45.3,29.89,WSW,248,7.1,12.7,60,0.01,BKN,,0.43,WeatherDisplay:10.37,2013-10-07 18:32:00,
2013-10-07 14:37:00,58.6,45.2,29.90,SW,225,8.4,13.8,61,0.01,BKN,,0.43,WeatherDisplay:10.37,2013-10-07 18:37:00,
2013-10-07 14:42:00,59.0,45.6,29.90,SSW,202,7.3,13.8,61,0.01,BKN,,0.43,WeatherDisplay:10.37,2013-10-07 18:42:00,
2013-10-07 14:47:00,59.9,46.4,29.90,SSW,202,7.2,10.4,61,0.01,BKN,,0.43,WeatherDisplay:10.37,2013-10-07 18:47:00,
2013-10-07 14:52:00,60.2,46.3,29.90,WSW,248,6.8,7.8,60,0.01,BKN,,0.43,WeatherDisplay:10.37,2013-10-07 18:52:00,
2013-10-07 14:57:00,60.6,47.5,29.90,ENE,68,4.1,6.1,62,0.01,BKN,,0.43,WeatherDisplay:10.37,2013-10-07 18:57:00,
2013-10-07 15:02:00,60.2,47.1,29.90,WSW,248,4.6,8.1,62,0.00,BKN,,0.43,WeatherDisplay:10.37,2013-10-07 19:02:00,
2013-10-07 15:07:00,60.6,47.1,29.90,SW,225,3.7,8.1,61,0.00,BKN,,0.43,WeatherDisplay:10.37,2013-10-07 19:07:00,
2013-10-07 15:12:00,60.2,46.3,29.90,WSW,248,5.9,13.8,60,0.00,BKN,,0.43,WeatherDisplay:10.37,2013-10-07 19:12:00,
2013-10-07 15:17:00,59.7,45.8,29.92,WSW,248,4.3,9.2,60,0.00,BKN,,0.43,WeatherDisplay:10.37,2013-10-07 19:17:00,
2013-10-07 15:22:00,59.7,46.2,29.92,West,270,6.6,12.1,61,0.00,BKN,,0.43,WeatherDisplay:10.37,2013-10-07 19:22:00,
2013-10-07 15:27:00,60.6,46.7,29.92,NE,45,6.3,11.5,60,0.00,BKN,,0.43,WeatherDisplay:10.37,2013-10-07 19:27:00,
2013-10-07 15:32:00,60.1,46.6,29.92,SW,225,6.5,10.4,61,0.00,BKN,,0.43,WeatherDisplay:10.37,2013-10-07 19:32:00,
2013-10-07 15:37:00,59.9,46.0,29.92,SW,225,4.5,10.4,60,0.00,BKN,,0.43,WeatherDisplay:10.37,2013-10-07 19:37:00,
2013-10-07 15:42:00,59.3,45.4,29.92,SW,225,7.6,10.4,60,0.00,BKN,,0.43,WeatherDisplay:10.37,2013-10-07 19:42:00,
2013-10-07 15:47:00,60.8,45.9,29.92,WSW,248,5.7,11.5,58,0.00,BKN,,0.43,WeatherDisplay:10.37,2013-10-07 19:47:00,
2013-10-07 15:52:00,61.5,47.1,29.93,SSW,202,5.6,9.2,59,0.00,BKN,,0.43,WeatherDisplay:10.37,2013-10-07 19:52:00,
2013-10-07 15:57:00,62.6,45.7,29.93,SW,225,7.9,16.1,54,0.00,BKN,,0.43,WeatherDisplay:10.37,2013-10-07 19:57:00,
2013-10-07 16:02:00,60.8,45.5,29.93,SW,225,6.4,9.2,57,0.00,BKN,,0.43,WeatherDisplay:10.37,2013-10-07 20:02:00,
2013-10-07 16:07:00,62.6,46.7,29.93,West,270,6.9,11.5,56,0.00,BKN,,0.43,WeatherDisplay:10.37,2013-10-07 20:07:00,
2013-10-07 16:12:00,61.0,46.6,29.93,WNW,292,9.0,12.9,59,0.00,BKN,,0.43,WeatherDisplay:10.37,2013-10-07 20:12:00,
2013-10-07 16:17:00,62.0,46.1,29.93,SSW,202,12.7,15.4,56,0.00,BKN,,0.43,WeatherDisplay:10.37,2013-10-07 20:17:00,
2013-10-07 16:22:00,61.3,46.4,29.93,WSW,248,9.2,17.3,58,0.00,BKN,,0.43,WeatherDisplay:10.37,2013-10-07 20:22:00,
2013-10-07 16:27:00,61.1,46.7,29.94,SSE,158,8.7,15.0,59,0.00,BKN,,0.43,WeatherDisplay:10.37,2013-10-07 20:27:00,
2013-10-07 16:32:00,62.2,45.8,29.94,WSW,248,9.3,15.0,55,0.00,BKN,,0.43,WeatherDisplay:10.37,2013-10-07 20:32:00,
2013-10-07 16:37:00,61.0,46.1,29.95,NNE,22,6.6,15.0,58,0.00,BKN,,0.43,WeatherDisplay:10.37,2013-10-07 20:37:00,
2013-10-07 16:42:00,59.9,45.5,29.95,NNW,338,7.9,18.4,59,0.00,BKN,,0.43,WeatherDisplay:10.37,2013-10-07 20:42:00,
2013-10-07 16:47:00,61.5,46.6,29.95,SSW,202,7.0,11.5,58,0.00,BKN,,0.43,WeatherDisplay:10.37,2013-10-07 20:47:00,
2013-10-07 16:52:00,61.5,46.6,29.95,SW,225,8.0,12.9,58,0.00,BKN,,0.43,WeatherDisplay:10.37,2013-10-07 20:52:00,
2013-10-07 16:57:00,61.0,46.6,29.95,SSW,202,7.4,9.5,59,0.00,BKN,,0.43,WeatherDisplay:10.37,2013-10-07 20:57:00,
2013-10-07 17:02:00,61.0,46.1,29.95,WNW,292,6.3,11.5,58,0.00,BKN,,0.43,WeatherDisplay:10.37,2013-10-07 21:02:00,
2013-10-07 17:07:00,60.4,45.6,29.95,WSW,248,7.9,13.8,58,0.00,BKN,,0.43,WeatherDisplay:10.37,2013-10-07 21:07:00,
2013-10-07 17:12:00,59.9,46.4,29.95,SSW,202,4.6,9.2,61,0.00,BKN,,0.43,WeatherDisplay:10.37,2013-10-07 21:12:00,
2013-10-07 17:17:00,60.8,46.4,29.96,South,180,4.6,8.1,59,0.00,BKN,,0.43,WeatherDisplay:10.37,2013-10-07 21:17:00,
2013-10-07 17:22:00,59.9,45.5,29.96,WSW,248,6.0,9.2,59,0.00,BKN,,0.43,WeatherDisplay:10.37,2013-10-07 21:22:00,
2013-10-07 17:27:00,62.9,47.0,29.96,WSW,248,4.1,5.8,56,0.00,BKN,,0.43,WeatherDisplay:10.37,2013-10-07 21:27:00,
2013-10-07 17:32:00,62.8,46.4,29.96,NW,315,6.8,10.4,55,0.00,BKN,,0.43,WeatherDisplay:10.37,2013-10-07 21:32:00,
2013-10-07 17:37:00,64.2,47.2,29.96,WSW,248,4.4,7.0,54,0.00,BKN,,0.43,WeatherDisplay:10.37,2013-10-07 21:37:00,
2013-10-07 17:42:00,59.9,45.5,29.96,West,270,3.9,8.1,59,0.00,BKN,,0.43,WeatherDisplay:10.37,2013-10-07 21:42:00,
2013-10-07 17:47:00,59.7,45.8,29.96,West,270,7.6,9.5,60,0.00,BKN,,0.43,WeatherDisplay:10.37,2013-10-07 21:47:00,
2013-10-07 17:52:00,60.4,46.0,29.97,SW,225,5.1,9.5,59,0.00,BKN,,0.43,WeatherDisplay:10.37,2013-10-07 21:52:00,
2013-10-07 17:57:00,62.6,46.7,29.97,ENE,68,4.2,8.1,56,0.00,BKN,,0.43,WeatherDisplay:10.37,2013-10-07 21:57:00,
2013-10-07 18:02:00,61.3,46.4,29.98,NW,315,1.6,2.7,58,0.00,BKN,,0.43,WeatherDisplay:10.37,2013-10-07 22:02:00,
2013-10-07 18:07:00,62.4,47.0,29.98,WNW,292,3.7,4.6,57,0.00,BKN,,0.43,WeatherDisplay:10.37,2013-10-07 22:07:00,
2013-10-07 18:12:00,62.6,47.2,29.98,WNW,292,3.4,4.4,57,0.00,BKN,,0.43,WeatherDisplay:10.37,2013-10-07 22:12:00,
2013-10-07 18:17:00,61.0,46.6,29.99,NNE,22,0.5,2.7,59,0.00,BKN,,0.43,WeatherDisplay:10.37,2013-10-07 22:17:00,
2013-10-07 18:22:00,58.8,46.2,29.99,WNW,292,0.8,4.6,63,0.00,BKN,,0.43,WeatherDisplay:10.37,2013-10-07 22:22:00,
2013-10-07 18:27:00,58.6,46.1,29.99,West,270,0.9,5.8,63,0.00,BKN,,0.43,WeatherDisplay:10.37,2013-10-07 22:27:00,
2013-10-07 18:32:00,58.3,46.2,29.99,West,270,1.1,3.6,64,0.00,BKN,,0.43,WeatherDisplay:10.37,2013-10-07 22:32:00,
2013-10-07 18:37:00,57.7,46.0,30.00,West,270,1.8,2.7,65,0.00,BKN,,0.43,WeatherDisplay:10.37,2013-10-07 22:37:00,
2013-10-07 18:42:00,57.2,46.7,30.00,West,270,0.0,0.0,68,0.00,BKN,,0.43,WeatherDisplay:10.37,2013-10-07 22:42:00,
2013-10-07 18:47:00,56.5,47.2,30.00,West,270,0.0,0.0,71,0.00,BKN,,0.43,WeatherDisplay:10.37,2013-10-07 22:47:00,
2013-10-07 18:52:00,56.1,46.8,30.01,West,270,0.0,0.0,71,0.00,BKN,,0.43,WeatherDisplay:10.37,2013-10-07 22:52:00,
2013-10-07 18:57:00,54.8,47.4,30.01,West,270,0.0,0.0,76,0.00,BKN,,0.43,WeatherDisplay:10.37,2013-10-07 22:57:00,
2013-10-07 19:02:00,53.9,47.9,30.01,West,270,0.0,0.0,80,0.00,SCT,,0.43,WeatherDisplay:10.37,2013-10-07 23:02:00,
2013-10-07 19:07:00,53.0,47.3,30.01,West,270,0.0,0.0,81,0.00,SCT,,0.43,WeatherDisplay:10.37,2013-10-07 23:07:00,
2013-10-07 19:12:00,52.3,47.3,30.01,West,270,0.0,0.0,83,0.00,SCT,,0.43,WeatherDisplay:10.37,2013-10-07 23:12:00,
2013-10-07 19:17:00,52.1,47.1,30.02,West,270,0.0,0.0,83,0.00,SCT,,0.43,WeatherDisplay:10.37,2013-10-07 23:17:00,
2013-10-07 19:22:00,51.8,47.1,30.02,West,270,0.0,0.0,84,0.00,SCT,,0.43,WeatherDisplay:10.37,2013-10-07 23:22:00,
2013-10-07 19:27:00,51.2,46.6,30.02,West,270,0.0,0.0,84,0.00,SCT,,0.43,WeatherDisplay:10.37,2013-10-07 23:27:00,
2013-10-07 19:32:00,50.9,46.3,30.02,West,270,0.0,0.0,84,0.00,SCT,,0.43,WeatherDisplay:10.37,2013-10-07 23:32:00,
2013-10-07 19:37:00,50.3,46.0,30.03,West,270,0.0,0.0,85,0.00,SCT,,0.43,WeatherDisplay:10.37,2013-10-07 23:37:00,
2013-10-07 19:42:00,50.2,45.9,30.03,West,270,0.0,0.0,85,0.00,SCT,,0.43,WeatherDisplay:10.37,2013-10-07 23:42:00,
2013-10-07 19:47:00,49.8,45.8,30.03,West,270,0.0,0.0,86,0.00,SCT,,0.43,WeatherDisplay:10.37,2013-10-07 23:47:00,
2013-10-07 19:52:00,49.4,45.7,30.03,West,270,0.0,0.0,87,0.00,SCT,,0.43,WeatherDisplay:10.37,2013-10-07 23:52:00,
2013-10-07 19:57:00,48.9,45.8,30.03,West,270,0.0,0.0,89,0.00,SCT,,0.43,WeatherDisplay:10.37,2013-10-07 23:57:00,
2013-10-07 20:02:00,48.5,46.0,30.04,West,270,0.0,0.0,91,0.00,SKC,,0.43,WeatherDisplay:10.37,2013-10-08 00:02:00,
2013-10-07 20:07:00,48.5,46.0,30.04,West,270,0.0,0.0,91,0.00,SKC,,0.43,WeatherDisplay:10.37,2013-10-08 00:07:00,
2013-10-07 20:12:00,48.2,45.4,30.04,West,270,0.0,0.0,90,0.00,SKC,,0.43,WeatherDisplay:10.37,2013-10-08 00:12:00,
2013-10-07 20:17:00,48.0,45.2,30.05,West,270,0.0,0.0,90,0.00,SKC,,0.43,WeatherDisplay:10.37,2013-10-08 00:17:00,
2013-10-07 20:22:00,48.0,45.2,30.05,West,270,0.0,0.0,90,0.00,SKC,,0.43,WeatherDisplay:10.37,2013-10-08 00:22:00,
2013-10-07 20:27:00,47.3,45.4,30.05,West,270,0.0,0.0,93,0.00,SKC,,0.43,WeatherDisplay:10.37,2013-10-08 00:27:00,
2013-10-07 20:32:00,46.9,45.3,30.05,West,270,0.0,0.0,94,0.00,SKC,,0.43,WeatherDisplay:10.37,2013-10-08 00:32:00,
2013-10-07 20:37:00,46.9,45.3,30.06,West,270,0.0,0.0,94,0.00,SKC,,0.43,WeatherDisplay:10.37,2013-10-08 00:37:00,
2013-10-07 20:42:00,46.9,45.3,30.06,West,270,0.0,0.0,94,0.00,SKC,,0.43,WeatherDisplay:10.37,2013-10-08 00:42:00,
2013-10-07 20:47:00,46.6,44.7,30.06,West,270,0.0,0.0,93,0.00,SKC,,0.43,WeatherDisplay:10.37,2013-10-08 00:47:00,
2013-10-07 20:52:00,46.6,44.7,30.06,West,270,0.0,0.0,93,0.00,SKC,,0.43,WeatherDisplay:10.37,2013-10-08 00:52:00,
2013-10-07 20:57:00,46.2,44.6,30.06,West,270,0.0,0.0,94,0.00,SKC,,0.43,WeatherDisplay:10.37,2013-10-08 00:57:00,
2013-10-07 21:02:00,46.2,44.6,30.06,West,270,0.0,0.0,94,0.00,SKC,,0.43,WeatherDisplay:10.37,2013-10-08 01:02:00,
2013-10-07 21:07:00,45.8,44.5,30.06,West,270,0.0,0.0,95,0.00,SKC,,0.43,WeatherDisplay:10.37,2013-10-08 01:07:00,
2013-10-07 21:12:00,45.7,44.4,30.07,West,270,0.0,0.0,95,0.00,SKC,,0.43,WeatherDisplay:10.37,2013-10-08 01:12:00,
2013-10-07 21:17:00,45.5,44.4,30.07,West,270,0.0,0.0,96,0.00,SKC,,0.43,WeatherDisplay:10.37,2013-10-08 01:17:00,
2013-10-07 21:22:00,45.3,44.5,30.07,West,270,0.0,0.0,97,0.00,SKC,,0.43,WeatherDisplay:10.37,2013-10-08 01:22:00,
2013-10-07 21:27:00,45.1,44.6,30.08,West,270,0.0,0.0,98,0.00,SKC,,0.43,WeatherDisplay:10.37,2013-10-08 01:27:00,
2013-10-07 21:33:00,45.1,44.6,30.08,West,270,0.0,0.0,98,0.00,SKC,,0.43,WeatherDisplay:10.37,2013-10-08 01:33:00,
2013-10-07 21:38:00,44.9,44.4,30.08,West,270,0.0,0.0,98,0.00,SKC,,0.43,WeatherDisplay:10.37,2013-10-08 01:38:00,
2013-10-07 21:43:00,44.8,44.3,30.08,West,270,0.0,0.0,98,0.00,SKC,,0.43,WeatherDisplay:10.37,2013-10-08 01:43:00,
2013-10-07 21:48:00,44.6,44.1,30.08,West,270,0.0,0.0,98,0.00,SKC,,0.43,WeatherDisplay:10.37,2013-10-08 01:48:00,
2013-10-07 21:53:00,44.4,43.9,30.09,West,270,0.0,0.0,98,0.00,SKC,,0.43,WeatherDisplay:10.37,2013-10-08 01:53:00,
2013-10-07 21:58:00,44.4,43.9,30.09,West,270,0.0,0.0,98,0.00,SKC,,0.43,WeatherDisplay:10.37,2013-10-08 01:58:00,
2013-10-07 22:03:00,44.4,43.9,30.09,West,270,0.0,0.0,98,0.00,SKC,,0.43,WeatherDisplay:10.37,2013-10-08 02:03:00,
2013-10-07 22:08:00,44.4,43.9,30.09,West,270,0.0,0.0,98,0.00,SKC,,0.43,WeatherDisplay:10.37,2013-10-08 02:08:00,
2013-10-07 22:13:00,44.0,43.5,30.09,West,270,0.0,0.0,98,0.00,SKC,,0.43,WeatherDisplay:10.37,2013-10-08 02:13:00,
2013-10-07 22:18:00,44.0,43.5,30.10,West,270,0.0,0.0,98,0.00,SKC,,0.43,WeatherDisplay:10.37,2013-10-08 02:18:00,
2013-10-07 22:24:00,43.9,43.4,30.10,West,270,0.0,0.0,98,0.00,SKC,,0.43,WeatherDisplay:10.37,2013-10-08 02:24:00,
2013-10-07 22:29:00,43.5,43.0,30.10,West,270,0.0,0.0,98,0.00,SKC,,0.43,WeatherDisplay:10.37,2013-10-08 02:29:00,
2013-10-07 22:34:00,43.7,43.2,30.10,West,270,0.0,0.0,98,0.00,SKC,,0.43,WeatherDisplay:10.37,2013-10-08 02:34:00,
2013-10-07 22:39:00,43.5,43.0,30.11,West,270,0.0,0.0,98,0.00,SKC,,0.43,WeatherDisplay:10.37,2013-10-08 02:39:00,
2013-10-07 22:44:00,43.3,42.8,30.11,West,270,0.0,0.0,98,0.00,SKC,,0.43,WeatherDisplay:10.37,2013-10-08 02:44:00,
2013-10-07 22:49:00,43.3,42.8,30.11,West,270,0.0,0.0,98,0.00,SKC,,0.43,WeatherDisplay:10.37,2013-10-08 02:49:00,
2013-10-07 22:54:00,43.3,43.1,30.11,West,270,0.0,0.0,99,0.00,SKC,,0.43,WeatherDisplay:10.37,2013-10-08 02:54:00,
2013-10-07 22:59:00,43.1,42.9,30.11,West,270,0.0,0.0,99,0.00,SKC,,0.43,WeatherDisplay:10.37,2013-10-08 02:59:00,
2013-10-07 23:04:00,43.3,43.1,30.11,West,270,0.0,0.0,99,0.00,SKC,,0.43,WeatherDisplay:10.37,2013-10-08 03:04:00,
2013-10-07 23:09:00,43.1,42.9,30.11,West,270,0.0,0.0,99,0.00,SKC,,0.43,WeatherDisplay:10.37,2013-10-08 03:09:00,
2013-10-07 23:14:00,43.3,43.1,30.11,West,270,0.0,0.0,99,0.00,SKC,,0.43,WeatherDisplay:10.37,2013-10-08 03:14:00,
2013-10-07 23:19:00,43.3,43.1,30.11,West,270,0.0,0.0,99,0.00,SKC,,0.43,WeatherDisplay:10.37,2013-10-08 03:19:00,
2013-10-07 23:25:00,44.3,44.3,30.11,West,270,0.0,0.0,100,0.00,SKC,SKC,0.43,WeatherDisplay:10.37,2013-10-08 03:25:00,
2013-10-07 23:30:00,43.5,43.5,30.11,West,270,2.5,3.5,100,0.00,SKC,,0.43,WeatherDisplay:10.37,2013-10-08 03:30:00,
2013-10-07 23:35:00,43.9,43.9,30.11,West,270,0.0,0.0,100,0.00,SKC,,0.43,WeatherDisplay:10.37,2013-10-08 03:35:00,
2013-10-07 23:40:00,43.5,43.5,30.11,West,270,0.0,0.0,100,0.00,SKC,,0.43,WeatherDisplay:10.37,2013-10-08 03:40:00,
2013-10-07 23:45:00,43.7,43.7,30.11,West,270,0.0,0.0,100,0.00,SKC,,0.43,WeatherDisplay:10.37,2013-10-08 03:45:00,
2013-10-07 23:50:00,43.7,43.7,30.11,West,270,0.0,0.0,100,0.00,SKC,,0.43,WeatherDisplay:10.37,2013-10-08 03:50:00,
2013-10-07 23:55:00,44.0,44.0,30.11,West,270,0.2,2.7,100,0.00,SKC,,0.43,WeatherDisplay:10.37,2013-10-08 03:55:00,